Grand Marais, MN

7:25 AM CDT on September 30, 2016 (GMT -0500)
Grand Marais

Weather History for KGNA - October, 2012

Change the Weather History Date:

Friday, October 5, 2012

  Actual Average (KCKC) Record (KCKC)
Temperature  
Mean Temperature 42 °F -  
Max Temperature 48 °F 52 °F 66 °F (2011)
Min Temperature 39 °F 35 °F 19 °F (2003)
Degree Days  
Heating Degree Days 22    
Moisture  
Dew Point 33 °F    
Average Humidity 71    
Maximum Humidity 77    
Minimum Humidity 63    
Precipitation  
Precipitation 0.00 in - - ()
Sea Level Pressure  
Sea Level Pressure 29.83 in    
Wind  
Wind Speed 15 mph (West)    
Max Wind Speed 21 mph    
Max Gust Speed 32 mph    
Averages and records for this station are not official NWS values.
T = Trace of Precipitation, MM = Missing Value Source: NWS Daily Summary

Daily Weather History Graph

Daily Weather History Graph

Search for Another Location

Airport or City:

Trip Planner

Search our weather history database for the weather conditions in past years. The results will help you decide how hot, cold, wet, or windy it might be!

Date:

Astronomy

Oct. 05, 2012 Rise Set
Actual Time 7:06 AM CDT 6:31 PM CDT
Civil Twilight 6:35 AM CDT 7:02 PM CDT
Nautical Twilight 6:00 AM CDT 7:38 PM CDT
Astronomical Twilight 5:23 AM CDT 8:14 PM CDT
Moon 9:34 PM CDT (10/5) 12:35 PM CDT (10/5)
Length of Visible Light 12h 26m
Length of Day
11h 24m
Waning Gibbous, 74% of the Moon is Illuminated
Oct 5
Waning Gibbous
Oct 8
Last Quarter
Oct 15
New
Oct 21
First Quarter
Oct 29
Full

Hourly Weather History & Observations

Time (CDT) Temp. Windchill Dew Point Humidity Pressure Visibility Wind Dir Wind Speed Gust Speed Precip Events Conditions
12:56 AM 43.0 °F 34.2 °F 36.0 °F 76% 29.75 in - WSW 20.7 mph 32.2 mph N/A   Unknown
1:56 AM 42.1 °F 33.1 °F 35.1 °F 76% 29.75 in - WSW 20.7 mph 31.1 mph N/A   Unknown
2:56 AM 41.0 °F 32.2 °F 33.1 °F 73% 29.75 in - WSW 18.4 mph 28.8 mph N/A   Unknown
3:56 AM 42.1 °F 34.2 °F 34.0 °F 73% 29.75 in - WSW 16.1 mph 28.8 mph N/A   Unknown
4:56 AM 41.0 °F 32.5 °F 33.1 °F 73% 29.75 in - West 17.3 mph 29.9 mph N/A   Unknown
5:56 AM 41.0 °F 33.5 °F 33.1 °F 73% 29.75 in - West 13.8 mph 29.9 mph N/A   Unknown
6:56 AM 41.0 °F 31.6 °F 33.1 °F 73% 29.76 in - WSW 20.7 mph 29.9 mph N/A   Unknown
7:56 AM 39.9 °F 30.5 °F 33.1 °F 77% 29.77 in - WSW 19.6 mph 29.9 mph N/A   Unknown
8:56 AM 41.0 °F 33.5 °F 33.1 °F 73% 29.78 in - West 13.8 mph 26.5 mph N/A   Unknown
9:56 AM 42.1 °F 33.9 °F 33.1 °F 70% 29.79 in - WSW 17.3 mph 25.3 mph N/A   Unknown
10:56 AM 42.1 °F 34.5 °F 33.1 °F 70% 29.80 in - WSW 15.0 mph 28.8 mph N/A   Unknown
11:56 AM 43.0 °F 35.7 °F 32.0 °F 65% 29.81 in - West 15.0 mph 27.6 mph N/A   Unknown
12:56 PM 43.0 °F 36.8 °F 33.1 °F 68% 29.81 in - West 11.5 mph 23.0 mph N/A   Unknown
1:56 PM 46.9 °F - 35.1 °F 63% 29.81 in - West 10.4 mph - N/A   Unknown
2:56 PM 46.0 °F 41.4 °F 35.1 °F 66% 29.81 in - West 9.2 mph 18.4 mph N/A   Unknown
3:56 PM 46.0 °F 41.9 °F 37.0 °F 71% 29.82 in - West 8.1 mph - N/A   Unknown
4:56 PM 44.1 °F 39.5 °F 36.0 °F 73% 29.85 in - West 8.1 mph - N/A   Unknown
5:56 PM 44.1 °F 40.1 °F 34.0 °F 68% 29.87 in - Variable 6.9 mph - N/A   Unknown
6:56 PM 41.0 °F 38.0 °F 33.1 °F 73% 29.91 in - Variable 4.6 mph - N/A   Unknown
7:56 PM 39.9 °F 37.8 °F 33.1 °F 77% 29.93 in - Variable 3.5 mph - N/A   Unknown
8:56 PM 39.9 °F - 32.0 °F 73% 29.94 in - Calm Calm - N/A   Unknown
9:56 PM 39.9 °F - 30.0 °F 68% 29.96 in - Calm Calm - N/A   Unknown
10:56 PM 39.0 °F - 30.9 °F 73% 29.98 in - Calm Calm - N/A   Unknown
11:56 PM 39.0 °F 36.8 °F 30.0 °F 70% 30.00 in - North 3.5 mph - N/A   Unknown